Regional Weather Roundup
Issued by NWS

Home | Current Version | Previous Version | Text Only | Print | Product List | Glossary On
Versions: 1 2 3 4 5 6 7 8 9 10 11 12 13 14 15 16 17 18 19 20 21 22 23 24 25 26 27 28 29 30 31 32 33 34 35 36 37 38 39 40 41 42 43 44 45 46 47 48 49 50
000
ASCA44 KEWX 141920
RWRMX

LATIN AMERICA AND CARIBBEAN REGIONAL WEATHER ROUNDUP
NATIONAL WEATHER SERVICE AUSTIN/SAN ANTONIO TX
100 PM CST SUN FEB 14 2016

NOTE: "FAIR" INDICATED FEW OR NO CLOUDS BELOW 12,000 FEET WITH NO
SIGNIFICANT WEATHER AND/OR OBSTRUCTIONS TO VISIBILITY.

BAJA CALIFORNIA

CITY           SKY/WX    TMP DP  RH WIND       PRES   REMARKS
LORETO         MOSUNNY   79  45  29 NE12      29.92F
LA PAZ         MOSUNNY   84  30  14 N8        29.95F
MEXICALI       SUNNY     81  23  12 W9        30.03S
S.J. DEL CABO  SUNNY     91  19   7 N9        29.92F
TIJUANA        SUNNY     75  30  19 NW5       30.07S

NORTHWESTERN MEXICO

CITY           SKY/WX    TMP DP  RH WIND       PRES   REMARKS
CULIACAN       MOSUNNY   82  64  54 S9        29.92F
DURANGO        MOSUNNY   70  14  11 N5        30.17F
GUAYMAS        PTSUNNY   84  45  24 CALM      29.85F
HERMOSILLO     PTSUNNY   82  30  15 CALM      29.95F
CD. JUAREZ     MOSUNNY   68  21  17 N7        30.08S
LOS MOCHIS     PTSUNNY   81  48  32 N9        29.91F
OBREGON        MOSUNNY   81  50  34 S3        29.86F

NORTHEASTERN MEXICO

CITY           SKY/WX    TMP DP  RH WIND       PRES   REMARKS
CHIHUAHUA      PTSUNNY   75  25  15 NW6       30.07F
MATAMOROS      PTSUNNY   77  61  57 SE21      29.97F
MONCLOVA         N/A    N/A N/A N/A MISG        N/A
MONTERREY      PTSUNNY   75  45  33 S6        29.92F
NUEVO LAREDO   MOSUNNY   77  54  44 S9        29.91F
PIEDRAS NEGRAS   N/A    N/A N/A N/A MISG        N/A
REYNOSA        SUNNY     79  50  36 S23G35    29.92
SALTILLO       SUNNY     81  50  34 CALM      30.11F
TORREON        MOSUNNY   73  27  17 CALM      30.05F
CD. VICTORIA   PTSUNNY   79  46  31 S15G26    29.95F

WESTERN MEXICO

CITY           SKY/WX    TMP DP  RH WIND       PRES   REMARKS
AGUASCALIENTES MOSUNNY   72  14  11 CALM      30.21F
COLIMA         MOSUNNY   84  52  32 CALM      29.95F
DEL BAJIO      MOSUNNY   73  19  13 SW3       30.25F
GUADALAJARA    MOSUNNY   73  19  13 CALM      30.16F
MANZANILLO     PTSUNNY   86  77  74 SW12      29.82F HX  97
MAZATLAN       PTSUNNY   82  66  57 CALM      29.90F
P. VALLARTA    MOSUNNY   82  63  51 S8        29.86F
URUAPAN        MOSUNNY   73  52  46 S9        30.13F
ZACATECAS      SUNNY     75  19  12 NW9       30.20F

CENTRAL MEXICO

CITY           SKY/WX    TMP DP  RH WIND       PRES   REMARKS
CUERNAVACA     SUNNY     75  36  23 S6        30.11F
MEXICO CITY    SUNNY     66  28  24 VRB2      30.26F
MORELIA        MOSUNNY   72  32  23 CALM      30.20F
POZA RICA      PTSUNNY   73  63  68 NE7       30.09F
PUEBLA         SUNNY     68  32  26 SE3       30.23F
QUERETARO      PTSUNNY   72  21  15 W14       30.24F
S. LUIS POTOSI MOSUNNY   70  16  12 CALM      30.18F
TAMPICO        PTSUNNY   77  57  50 S18       30.02F
TOLUCA         MOSUNNY   72  28  20 NW14      30.29F

SOUTHERN MEXICO

CITY           SKY/WX    TMP DP  RH WIND       PRES   REMARKS
ACAPULCO       MOSUNNY   86  68  54 W7        29.81F
B. DE HUATULCO SUNNY     88  70  55 S9        29.86F HX  92
OAXACA         SUNNY     73  37  27 CALM      30.13F
P. ESCONDIDO   SUNNY     86  72  62 S12       29.92F HX  92
VERACRUZ       MOSUNNY   75  63  64 SE3       30.03F
ZIHUATANEJO    MOSUNNY   88  73  62 SW9       29.83F HX  96

YUCATAN PENINSULA

CITY           SKY/WX    TMP DP  RH WIND       PRES   REMARKS
CAMPECHE       MOSUNNY   81  61  50 E9        29.99F
CANCUN         PTSUNNY   77  63  61 E9        30.08F
CHETUMAL       MOSUNNY   81  63  54 NE12      30.02F
CD. DEL CARMEN MOSUNNY   77  63  61 N12       30.00F
COZUMEL        MOSUNNY   75  63  64 NE17      30.06F
MERIDA         MOSUNNY   86  52  30 E12       30.02F
MINATITLAN     CLOUDY    73  68  83 CALM      29.97F
TAPACHULA      SUNNY     86  72  62 W17       29.83F HX  92
TUX. GUTIERREZ SUNNY     77  52  41 CALM      29.96F
VILLAHERMOSA   PTSUNNY   79  63  57 NE9       30.02F

CENTRAL AMERICA

CITY           SKY/WX    TMP DP  RH WIND       PRES   REMARKS
BELIZE CITY    PTSUNNY   79  70  73 NE10      29.98F
MANAGUA        PTCLDY    91  68  46 E23       29.77F HX  95

CARIBBEAN

CITY           SKY/WX    TMP DP  RH WIND       PRES   REMARKS
CURACAO        MOSUNNY   86  68  54 SE18      29.83F
KINGSTON       PTSUNNY   77  70  78 NW7       29.92F
NASSAU         MOSUNNY   79  43  27 NE14      30.16F
SAN JUAN       MOSUNNY   82  70  65 NE16G24   29.93F
SANTO DOMINGO  MOSUNNY   86  70  58 SE9       29.92F HX  90
ST. CROIX      MOSUNNY   84  70  61 E13G21    29.93F
ST. KITTS      PTSUNNY   77  72  83 SE6       29.94S
ST. MAARTEN    PTSUNNY   81  70  69 SE12      29.94S
ST. THOMAS     SUNNY     82  64  54 SE10      29.93F

$$




USA.gov is the U.S. government's official web portal to all federal, state and local government web resources and services.